OM3WYM-13 Weather Reports


Display with metric or nautical units.
time (UTC)temp
F
wind
direction
speed
MPH
gust
MPH
rain 1hr
in
rain 24hr
in
rain mn
in
humidity
%
barometer
mb
20260507023008 52 0.0 0.0 0.00 0.00 0.00 86 1011.1
20260507022008 52 0.0 0.0 0.00 0.00 0.00 86 1010.9
20260507021008 52 0.0 0.0 0.00 0.00 0.00 84 1010.8
20260507020009 53 0.0 0.0 0.00 0.00 0.00 84 1010.8
20260507015008 52 0.0 0.0 0.00 0.00 0.00 84 1010.8
20260507014008 52 0.0 0.0 0.00 0.00 0.00 83 1010.9
20260507013008 53 0.0 0.0 0.00 0.00 0.00 81 1010.7
20260507012008 53 0.0 0.0 0.00 0.00 0.00 80 1010.6
20260507011008 53 0.0 0.0 0.00 0.00 0.00 81 1010.6
20260507010008 53 0.0 0.0 0.00 0.00 0.00 80 1010.5
20260507005008 53 0.0 0.0 0.00 0.00 0.00 80 1010.4
20260507004008 53 0.0 0.0 0.00 0.00 0.00 80 1010.4
20260507003008 54 0.0 0.0 0.00 0.00 0.00 77 1010.3
20260507002008 54 0.0 0.0 0.00 0.00 0.00 76 1010.3
20260507001008 54 0.0 0.0 0.00 0.00 0.00 75 1010.3
20260507000008 54 0.0 0.0 0.00 0.00 0.00 76 1010.3
20260506235008 54 0.0 0.0 0.00 0.00 0.00 75 1010.3
20260506234008 55 0.0 0.0 0.00 0.00 0.00 74 1010.3
20260506233008 55 0.0 0.0 0.00 0.00 0.00 75 1010.6
20260506232008 55 0.0 0.0 0.00 0.00 0.00 74 1010.4
20260506231008 55 0.0 0.0 0.00 0.00 0.00 73 1010.3
20260506230008 55 0.0 0.0 0.00 0.00 0.00 73 1010.4
20260506225008 56 0.0 0.0 0.00 0.00 0.00 72 1010.3
20260506224008 56 0.0 0.0 0.00 0.00 0.00 72 1010.4
20260506223008 56 0.0 0.0 0.00 0.00 0.00 71 1010.4
20260506222008 56 0.0 0.0 0.00 0.00 0.00 71 1010.3
20260506221008 56 0.0 0.0 0.00 0.00 0.00 71 1010.4
20260506220008 56 0.0 0.0 0.00 0.00 0.00 70 1010.2
20260506215008 56 0.0 0.0 0.00 0.00 0.00 70 1010.2
20260506214008 56 0.0 0.0 0.00 0.00 0.00 70 1010.3
20260506213008 57 0.0 0.0 0.00 0.00 0.00 70 1010.3
20260506212008 57 0.0 0.0 0.00 0.00 0.00 69 1010.4
20260506211008 57 0.0 0.0 0.00 0.00 0.00 68 1010.4
20260506210008 57 0.0 0.0 0.00 0.00 0.00 67 1010.3
20260506205008 58 0.0 0.0 0.00 0.00 0.00 65 1010.2
20260506204008 59 0.0 0.0 0.00 0.00 0.00 64 1010.2
20260506203008 59 0.0 0.0 0.00 0.00 0.00 62 1010.1
20260506202008 60 0.0 0.0 0.00 0.00 0.00 60 1010.0
20260506201008 61 0.0 0.0 0.00 0.00 0.00 58 1010.0
20260506200008 62 0.0 0.0 0.00 0.00 0.00 56 1009.9
20260506195008 63 0.0 0.0 0.00 0.00 0.00 54 1009.7
20260506194008 64 0.0 0.0 0.00 0.00 0.00 51 1009.6
20260506193008 65 0.0 0.0 0.00 0.00 0.00 49 1009.5
20260506192008 67 0.0 0.0 0.00 0.00 0.00 46 1009.5
20260506191008 67 0.0 0.0 0.00 0.00 0.00 45 1009.2
20260506190008 66 0.0 0.0 0.00 0.00 0.00 47 1009.2
20260506185008 67 0.0 0.0 0.00 0.00 0.00 45 1009.2
20260506184008 68 0.0 0.0 0.00 0.00 0.00 45 1009.2
20260506183008 68 0.0 0.0 0.00 0.00 0.00 45 1009.0
20260506182008 68 0.0 0.0 0.00 0.00 0.00 46 1009.0
20260506181008 68 0.0 0.0 0.00 0.00 0.00 45 1008.9
20260506180008 69 0.0 0.0 0.00 0.00 0.00 43 1008.7
20260506175008 70 0.0 0.0 0.00 0.00 0.00 42 1008.6
20260506174008 70 0.0 0.0 0.00 0.00 0.00 42 1008.6
20260506173008 71 0.0 0.0 0.00 0.00 0.00 41 1008.6
20260506172008 72 0.0 0.0 0.00 0.00 0.00 40 1008.6
20260506171008 73 0.0 0.0 0.00 0.00 0.00 38 1008.6
20260506170008 73 0.0 0.0 0.00 0.00 0.00 38 1008.5
20260506165008 74 0.0 0.0 0.00 0.00 0.00 36 1008.5
20260506164008 75 0.0 0.0 0.00 0.00 0.00 35 1008.5
20260506163008 75 0.0 0.0 0.00 0.00 0.00 34 1008.6
20260506162008 76 0.0 0.0 0.00 0.00 0.00 34 1008.5
20260506161008 77 0.0 0.0 0.00 0.00 0.00 33 1008.5
20260506160008 76 0.0 0.0 0.00 0.00 0.00 32 1008.6
20260506155008 77 0.0 0.0 0.00 0.00 0.00 32 1008.6
20260506154008 78 0.0 0.0 0.00 0.00 0.00 31 1008.5
20260506153008 77 0.0 0.0 0.00 0.00 0.00 32 1008.4
20260506152008 77 0.0 0.0 0.00 0.00 0.00 31 1008.4
20260506151008 78 0.0 0.0 0.00 0.00 0.00 31 1008.5
20260506150008 79 0.0 0.0 0.00 0.00 0.00 30 1008.5
20260506145008 82 0.0 0.0 0.00 0.00 0.00 27 1008.3
20260506144008 82 0.0 0.0 0.00 0.00 0.00 27 1008.5
20260506143008 80 0.0 0.0 0.00 0.00 0.00 28 1008.6
20260506142008 80 0.0 0.0 0.00 0.00 0.00 28 1008.7
20260506141008 80 0.0 0.0 0.00 0.00 0.00 28 1008.7
20260506140008 79 0.0 0.0 0.00 0.00 0.00 29 1008.6
20260506135008 79 0.0 0.0 0.00 0.00 0.00 29 1008.7
20260506134008 80 0.0 0.0 0.00 0.00 0.00 28 1008.7
20260506133008 79 0.0 0.0 0.00 0.00 0.00 29 1008.7
20260506132008 80 0.0 0.0 0.00 0.00 0.00 27 1008.7
20260506131008 80 0.0 0.0 0.00 0.00 0.00 28 1008.7
20260506130008 79 0.0 0.0 0.00 0.00 0.00 30 1008.9
20260506125008 78 0.0 0.0 0.00 0.00 0.00 32 1008.9
20260506124008 79 0.0 0.0 0.00 0.00 0.00 31 1009.0
20260506123008 79 0.0 0.0 0.00 0.00 0.00 32 1009.1
20260506122009 77 0.0 0.0 0.00 0.00 0.00 34 1009.3
20260506121008 76 0.0 0.0 0.00 0.00 0.00 35 1009.4
20260506120008 76 0.0 0.0 0.00 0.00 0.00 36 1009.8
20260506115008 75 0.0 0.0 0.00 0.00 0.00 36 1009.8
20260506114015 75 0.0 0.0 0.00 0.00 0.00 37 1009.8
20260506113008 74 0.0 0.0 0.00 0.00 0.00 38 1009.9
20260506112008 76 0.0 0.0 0.00 0.00 0.00 37 1010.0
20260506111008 75 0.0 0.0 0.00 0.00 0.00 38 1009.9
20260506110008 75 0.0 0.0 0.00 0.00 0.00 37 1010.1
20260506105008 74 0.0 0.0 0.00 0.00 0.00 39 1010.1
20260506104008 73 0.0 0.0 0.00 0.00 0.00 41 1010.3
20260506103008 72 0.0 0.0 0.00 0.00 0.00 41 1010.3
20260506102008 71 0.0 0.0 0.00 0.00 0.00 43 1010.5
20260506101008 71 0.0 0.0 0.00 0.00 0.00 43 1010.6
20260506100008 70 0.0 0.0 0.00 0.00 0.00 45 1010.8
20260506095008 69 0.0 0.0 0.00 0.00 0.00 46 1011.0
20260506094008 68 0.0 0.0 0.00 0.00 0.00 47 1011.1
20260506093008 68 0.0 0.0 0.00 0.00 0.00 46 1011.0
20260506092008 67 0.0 0.0 0.00 0.00 0.00 48 1011.2
20260506091008 67 0.0 0.0 0.00 0.00 0.00 48 1011.1
20260506090008 67 0.0 0.0 0.00 0.00 0.00 47 1011.0
20260506085008 66 0.0 0.0 0.00 0.00 0.00 49 1011.1
20260506084008 64 0.0 0.0 0.00 0.00 0.00 50 1011.3
20260506083008 64 0.0 0.0 0.00 0.00 0.00 51 1011.4
20260506082009 63 0.0 0.0 0.00 0.00 0.00 50 1011.2
20260506081008 63 0.0 0.0 0.00 0.00 0.00 50 1011.1
20260506073008 65 0.0 0.0 0.00 0.00 0.00 46 1010.7
20260506072008 64 0.0 0.0 0.00 0.00 0.00 45 1010.6
20260506071008 65 0.0 0.0 0.00 0.00 0.00 44 1010.6
20260506062008 63 0.0 0.0 0.00 0.00 0.00 46 1010.1
20260506061008 62 0.0 0.0 0.00 0.00 0.00 47 1010.2
20260506051008 51 0.0 0.0 0.00 0.00 0.00 66 1010.8
20260506045008 48 0.0 0.0 0.00 0.00 0.00 69 1011.1
20260506044008 47 0.0 0.0 0.00 0.00 0.00 72 1011.3
20260506043008 46 0.0 0.0 0.00 0.00 0.00 75 1011.4
20260506042008 45 0.0 0.0 0.00 0.00 0.00 75 1011.4
20260506041008 45 0.0 0.0 0.00 0.00 0.00 74 1011.5
20260506040008 45 0.0 0.0 0.00 0.00 0.00 74 1011.5
20260506035008 45 0.0 0.0 0.00 0.00 0.00 74 1011.4
20260506034008 46 0.0 0.0 0.00 0.00 0.00 72 1011.5
20260506033008 46 0.0 0.0 0.00 0.00 0.00 71 1011.5
20260506032008 46 0.0 0.0 0.00 0.00 0.00 70 1011.4
20260506031008 47 0.0 0.0 0.00 0.00 0.00 69 1011.4
20260506030008 47 0.0 0.0 0.00 0.00 0.00 68 1011.4
20260506025010 47 0.0 0.0 0.00 0.00 0.00 67 1011.3
20260506024008 48 0.0 0.0 0.00 0.00 0.00 65 1011.2